Moses Lake, WA

8:11 AM PDT on April 24, 2017 (GMT -0700)
Grant County International

Weather History for KMWH - October, 2012

Change the Weather History Date:

Wednesday, October 24, 2012

  Actual Average Record
Temperature  
Mean Temperature 37 °F 46 °F  
Max Temperature 44 °F 59 °F 69 °F (2013)
Min Temperature 30 °F 33 °F 19 °F (2002)
Degree Days  
Heating Degree Days 28 19  
Month to date heating degree days 330 343  
Since 1 July heating degree days 403 493  
Cooling Degree Days 0 0  
Month to date cooling degree days 0 0  
Year to date cooling degree days 719 614  
Moisture  
Dew Point 33 °F    
Average Humidity 81    
Maximum Humidity 92    
Minimum Humidity 70    
Precipitation  
Precipitation T in 0.02 in 0.23 in (2010)
Month to date precipitation 0.52 0.48  
Year to date precipitation 6.10 6.30  
Sea Level Pressure  
Sea Level Pressure 30.04 in    
Wind  
Wind Speed 5 mph (West)    
Max Wind Speed 9 mph    
Max Gust Speed 12 mph    
Visibility 10 miles    
Events Rain    
T = Trace of Precipitation, MM = Missing Value Source: NWS Daily Summary

Daily Weather History Graph

Daily Weather History Graph

Search for Another Location

Airport or City:

Trip Planner

Search our weather history database for the weather conditions in past years. The results will help you decide how hot, cold, wet, or windy it might be!

Date:

Astronomy

Oct. 24, 2012 Rise Set
Actual Time 7:29 AM PDT 5:52 PM PDT
Civil Twilight 6:58 AM PDT 6:23 PM PDT
Nautical Twilight 6:22 AM PDT 6:59 PM PDT
Astronomical Twilight 5:46 AM PDT 7:34 PM PDT
Moon 3:27 PM PDT 2:11 AM PDT
Length of Visible Light 11h 25m
Length of Day
10h 23m
Waxing Gibbous, 77% of the Moon is Illuminated
Oct 24
Waxing Gibbous
Oct 29
Full
Nov 6
Last Quarter
Nov 13
New
Nov 20
First Quarter

Hourly Weather History & Observations

Time (PDT) Temp. Windchill Dew Point Humidity Pressure Visibility Wind Dir Wind Speed Gust Speed Precip Events Conditions
12:52 AM 30.9 °F 24.3 °F 28.0 °F 89% 29.97 in 10.0 mi North 6.9 mph - N/A   Clear
1:52 AM 30.9 °F 23.5 °F 28.0 °F 89% 29.97 in 10.0 mi North 8.1 mph - N/A   Clear
2:52 AM 30.0 °F 22.4 °F 28.0 °F 92% 29.97 in 10.0 mi North 8.1 mph - N/A   Clear
3:52 AM 32.0 °F 25.6 °F 28.9 °F 88% 29.97 in 10.0 mi NNE 6.9 mph - N/A   Overcast
4:52 AM 33.1 °F 26.1 °F 30.0 °F 89% 29.96 in 10.0 mi NNE 8.1 mph - N/A   Overcast
5:52 AM 35.1 °F 31.0 °F 30.9 °F 85% 29.96 in 10.0 mi North 4.6 mph - N/A   Overcast
6:52 AM 33.1 °F 27.7 °F 30.0 °F 89% 29.98 in 10.0 mi NNW 5.8 mph - N/A   Overcast
7:52 AM 34.0 °F 28.0 °F 30.0 °F 85% 29.98 in 10.0 mi North 6.9 mph - N/A   Overcast
9:52 AM 37.9 °F 34.4 °F 32.0 °F 79% 30.01 in 10.0 mi NNE 4.6 mph - 0.00 in Rain Light Rain
10:52 AM 39.9 °F 35.8 °F 34.0 °F 79% 30.01 in 10.0 mi NE 5.8 mph - 0.00 in Rain Light Rain
11:52 AM 42.1 °F 40.2 °F 34.0 °F 73% 30.01 in 10.0 mi ESE 3.5 mph - 0.00 in   Mostly Cloudy
12:52 PM 43.0 °F 41.3 °F 34.0 °F 71% 30.02 in 10.0 mi Variable 3.5 mph - N/A   Overcast
1:29 PM 42.8 °F 41.1 °F 35.6 °F 76% 30.00 in 10.0 mi West 3.5 mph - N/A   Overcast
1:42 PM 42.8 °F 41.1 °F 35.6 °F 76% 30.00 in 10.0 mi WSW 3.5 mph - N/A   Overcast
1:52 PM 42.1 °F 40.2 °F 35.1 °F 76% 30.03 in 10.0 mi Variable 3.5 mph - N/A   Overcast
2:47 PM 42.8 °F 40.1 °F 35.6 °F 76% 30.01 in 10.0 mi SW 4.6 mph - N/A   Overcast
2:52 PM 43.0 °F 41.3 °F 35.1 °F 74% 30.04 in 10.0 mi SSW 3.5 mph - N/A   Overcast
3:10 PM 42.8 °F 41.1 °F 35.6 °F 76% 30.01 in 10.0 mi SSW 3.5 mph - N/A   Overcast
3:52 PM 42.1 °F 38.4 °F 35.1 °F 76% 30.05 in 10.0 mi SSW 5.8 mph - N/A   Overcast
4:01 PM 42.8 °F 39.3 °F 35.6 °F 76% 30.02 in 10.0 mi SW 5.8 mph - N/A   Overcast
4:12 PM 42.8 °F 38.6 °F 35.6 °F 76% 30.03 in 10.0 mi SW 6.9 mph - N/A   Overcast
4:52 PM 42.1 °F 37.1 °F 35.1 °F 76% 30.07 in 10.0 mi WSW 8.1 mph - N/A   Overcast
5:31 PM 41.0 °F 35.8 °F 35.6 °F 81% 30.05 in 10.0 mi SW 8.1 mph - N/A   Overcast
5:52 PM 39.2 °F 35.0 °F 35.6 °F 87% 30.05 in 10.0 mi WSW 5.8 mph - N/A   Mostly Cloudy
6:38 PM 37.4 °F 32.8 °F 33.8 °F 87% 30.07 in 10.0 mi WSW 5.8 mph - N/A   Scattered Clouds
6:52 PM 37.9 °F 34.4 °F 33.1 °F 83% 30.11 in 10.0 mi WSW 4.6 mph - N/A   Partly Cloudy
7:52 PM 36.0 °F - 32.0 °F 86% 30.12 in 10.0 mi Calm Calm - N/A   Clear
8:14 PM 35.6 °F - 32.0 °F 87% 30.09 in 10.0 mi Calm Calm - N/A   Mostly Cloudy
8:52 PM 35.1 °F 32.2 °F 32.0 °F 89% 30.14 in 10.0 mi SSE 3.5 mph - N/A   Overcast
9:11 PM 37.4 °F - 33.8 °F 87% 30.11 in 10.0 mi Calm Calm - N/A   Overcast
9:52 PM 37.9 °F - 34.0 °F 86% 30.15 in 10.0 mi Calm Calm - N/A   Mostly Cloudy
10:52 PM 39.0 °F 35.7 °F 35.1 °F 86% 30.17 in 10.0 mi WSW 4.6 mph - N/A   Overcast
11:52 PM 37.0 °F - 33.1 °F 86% 30.17 in 9.0 mi Calm Calm - N/A   Overcast